Daggett-Barstow, CA

11:49 AM PDT on June 23, 2017 (GMT -0700)
Barstow-Daggett

Weather History for KDAG - February, 2014

Change the Weather History Date:

Friday, February 28, 2014

  Actual Average Record
Temperature  
Mean Temperature 58 °F 55 °F  
Max Temperature 68 °F 68 °F 86 °F (1972)
Min Temperature 48 °F 42 °F 20 °F (1962)
Degree Days  
Heating Degree Days 7    
Cooling Degree Days 0    
Growing Degree Days 8 (Base 50)    
Moisture  
Dew Point 44 °F    
Average Humidity 61    
Maximum Humidity 78    
Minimum Humidity 43    
Precipitation  
Precipitation 0.23 in 0.02 in 0.37 in (1991)
Month to date precipitation 0.66  
Year to date precipitation 1.26  
Sea Level Pressure  
Sea Level Pressure 29.65 in    
Wind  
Wind Speed 11 mph (SW)    
Max Wind Speed 28 mph    
Max Gust Speed 47 mph    
Visibility 10 miles    
Events Rain , Thunderstorm    
T = Trace of Precipitation, MM = Missing Value Source: NWS Daily Summary

Daily Weather History Graph

Daily Weather History Graph

Search for Another Location

Airport or City:

Trip Planner

Search our weather history database for the weather conditions in past years. The results will help you decide how hot, cold, wet, or windy it might be!

Date:

Astronomy

Feb. 28, 2014 Rise Set
Actual Time 6:17 AM PST 5:42 PM PST
Civil Twilight 5:52 AM PST 6:07 PM PST
Nautical Twilight 5:22 AM PST 6:36 PM PST
Astronomical Twilight 4:53 AM PST 7:06 PM PST
Moon 5:34 AM PST (2/28) 5:23 PM PST (2/28)
Length of Visible Light 12h 15m
Length of Day
11h 24m
Waning Crescent, 0% of the Moon is Illuminated
Feb 28
Waning Crescent
Mar 1
New
Mar 8
First Quarter
Mar 16
Full
Mar 23
Last Quarter

Hourly Weather History & Observations

Time (PST) Temp. Dew Point Humidity Pressure Visibility Wind Dir Wind Speed Gust Speed Precip Events Conditions
12:50 AM 57.0 °F 39.9 °F 53% 29.77 in 10.0 mi WSW 5.8 mph - N/A   Mostly Cloudy
1:50 AM 57.0 °F 39.9 °F 53% 29.75 in 10.0 mi South 4.6 mph - 0.00 in Rain Light Rain
2:50 AM 57.0 °F 39.0 °F 51% 29.71 in 10.0 mi WSW 4.6 mph - 0.00 in   Overcast
3:50 AM 55.0 °F 42.1 °F 62% 29.68 in 10.0 mi ENE 4.6 mph - 0.00 in   Overcast
4:50 AM 54.0 °F 41.0 °F 62% 29.67 in 10.0 mi ENE 8.1 mph - N/A   Mostly Cloudy
5:50 AM 54.0 °F 43.0 °F 66% 29.68 in 10.0 mi NE 6.9 mph - N/A   Overcast
6:50 AM 54.0 °F 44.1 °F 69% 29.68 in 10.0 mi SSE 3.5 mph - 0.00 in Rain Light Rain
7:50 AM 57.9 °F 39.9 °F 51% 29.67 in 10.0 mi NE 8.1 mph - 0.00 in   Mostly Cloudy
8:50 AM 62.1 °F 41.0 °F 46% 29.64 in 10.0 mi Calm Calm - N/A   Partly Cloudy
9:50 AM 68.0 °F 46.9 °F 47% 29.61 in 10.0 mi East 15.0 mph - N/A   Mostly Cloudy
10:15 AM 68.0 °F 46.0 °F 45% 29.64 in 10.0 mi SE 10.4 mph 23.0 mph N/A   Mostly Cloudy
10:50 AM 68.0 °F 45.0 °F 43% 29.62 in 10.0 mi West 10.4 mph - N/A   Scattered Clouds
11:33 AM 59.0 °F 50.0 °F 72% 29.70 in 6.0 mi SSW 23.0 mph 47.2 mph 0.05 in Rain , Thunderstorm Rain
11:48 AM 62.6 °F 51.8 °F 68% 29.67 in 10.0 mi SSW 19.6 mph 26.5 mph 0.06 in Rain Light Rain
11:50 AM 62.1 °F 52.0 °F 70% 29.64 in 10.0 mi SSW 19.6 mph 26.5 mph 0.06 in Rain Light Rain
12:50 PM 61.0 °F 48.9 °F 64% 29.63 in 10.0 mi SW 19.6 mph 26.5 mph 0.03 in Rain Light Rain
1:06 PM 57.9 °F 51.1 °F 78% 29.67 in 10.0 mi West 10.4 mph - 0.00 in Rain Light Rain
1:50 PM 61.0 °F 48.9 °F 64% 29.63 in 10.0 mi SSW 15.0 mph 25.3 mph 0.01 in Rain Light Rain
2:50 PM 64.0 °F 46.0 °F 52% 29.54 in 10.0 mi SSW 27.6 mph 35.7 mph 0.00 in   Partly Cloudy
3:50 PM 64.0 °F 42.1 °F 45% 29.50 in 10.0 mi South 19.6 mph 28.8 mph 0.00 in Rain Light Rain
4:25 PM 57.9 °F 48.9 °F 72% 29.58 in 10.0 mi SW 17.3 mph - 0.02 in Rain Light Rain
4:50 PM 57.0 °F 50.0 °F 77% 29.58 in 9.0 mi SW 11.5 mph - 0.08 in Rain Light Rain
5:50 PM 53.1 °F 44.1 °F 71% 29.61 in 10.0 mi SW 20.7 mph 28.8 mph 0.04 in Rain Light Rain
6:50 PM 53.1 °F 39.9 °F 61% 29.61 in 10.0 mi SW 23.0 mph 31.1 mph 0.01 in   Mostly Cloudy
7:50 PM 52.0 °F 37.9 °F 59% 29.62 in 10.0 mi SSW 25.3 mph 34.5 mph N/A   Clear
8:50 PM 53.1 °F 37.9 °F 57% 29.62 in 10.0 mi SW 20.7 mph 28.8 mph N/A   Clear
9:35 PM 50.0 °F 41.0 °F 71% 29.70 in 10.0 mi NW 11.5 mph - N/A   Scattered Clouds
9:50 PM 48.9 °F 41.0 °F 74% 29.67 in 10.0 mi NNW 18.4 mph - N/A   Mostly Cloudy
10:50 PM 48.9 °F 41.0 °F 74% 29.66 in 10.0 mi WSW 12.7 mph - N/A   Partly Cloudy
11:50 PM 51.1 °F 39.0 °F 63% 29.68 in 10.0 mi WSW 8.1 mph - N/A   Clear